• In Hungary
  • List of Countries
  • For 7 days
  • Water Temperature
  • Satellite Maps
  • Weather Map
  • News
  • Weather Widgets
  • user-avatar
    Login

    Hourly Weather Königsfeld im Schwarzwald

    Today, 22 January, Monday

    Time Temperature Precipitation Wind Pressure Humidity
    00:00 -1°C° 1 mm 2 mps 691 mmHg 93%
    01:00 -1°C° 0 mm 3 mps 690 mmHg 92%
    02:00 0°C° 1.5 mm 3 mps 689 mmHg 94%
    03:00 0°C° 1.5 mm 3 mps 689 mmHg 95%
    04:00 +1°C° 1.5 mm 3 mps 689 mmHg 97%
    05:00 +1°C° 0.7 mm 4 mps 689 mmHg 97%
    06:00 +1°C° 0.7 mm 4 mps 689 mmHg 97%
    07:00 +3°C° 0.7 mm 4 mps 689 mmHg 97%
    08:00 +3°C° 0.6 mm 4 mps 688 mmHg 97%
    09:00 +3°C° 0.6 mm 4 mps 688 mmHg 97%
    10:00 +4°C° 0.6 mm 4 mps 688 mmHg 97%
    11:00 +4°C° 1.7 mm 3 mps 688 mmHg 97%
    12:00 +3°C° 1.7 mm 3 mps 688 mmHg 97%
    13:00 +4°C° 0 mm 3 mps 688 mmHg 96%
    14:00 +4°C° 2.4 mm 3 mps 688 mmHg 95%
    15:00 +4°C° 2.4 mm 3 mps 688 mmHg 95%
    16:00 +4°C° 2.4 mm 3 mps 688 mmHg 95%
    17:00 +4°C° 1.8 mm 3 mps 689 mmHg 96%
    18:00 +4°C° 1.8 mm 3 mps 689 mmHg 96%
    19:00 +3°C° 1.8 mm 3 mps 690 mmHg 96%
    20:00 +3°C° 0.1 mm 3 mps 691 mmHg 96%
    21:00 +3°C° 0.1 mm 3 mps 692 mmHg 96%
    22:00 +3°C° 0.1 mm 3 mps 694 mmHg 96%
    23:00 +3°C° 0.1 mm 2 mps 694 mmHg 95%

    Tomorrow, 23 January, Tuesday

    Time Temperature Precipitation Wind Pressure Humidity
    00:00 +3°C° 0.1 mm 2 mps 695 mmHg 94%
    01:00 +2°C° 0.1 mm 2 mps 696 mmHg 93%
    02:00 +2°C° 0 mm 2 mps 696 mmHg 93%
    03:00 +2°C° 0 mm 2 mps 697 mmHg 93%
    04:00 +1°C° 0 mm 2 mps 697 mmHg 93%
    05:00 +1°C° 0 mm 2 mps 697 mmHg 94%
    06:00 -1°C° 0 mm 2 mps 698 mmHg 94%
    07:00 -1°C° 0 mm 2 mps 698 mmHg 94%
    08:00 +1°C° 0 mm 2 mps 698 mmHg 93%
    09:00 +2°C° 0 mm 1 mps 699 mmHg 93%
    10:00 +3°C° 0 mm 1 mps 699 mmHg 92%
    11:00 +3°C° 0 mm 2 mps 699 mmHg 89%
    12:00 +4°C° 0 mm 2 mps 699 mmHg 87%
    13:00 +4°C° 0 mm 2 mps 700 mmHg 84%
    14:00 +4°C° 0 mm 2 mps 699 mmHg 85%
    15:00 +4°C° 0 mm 2 mps 699 mmHg 86%
    16:00 +4°C° 0 mm 2 mps 699 mmHg 88%
    17:00 +3°C° 0 mm 2 mps 699 mmHg 89%
    18:00 +2°C° 0 mm 2 mps 699 mmHg 90%
    19:00 +2°C° 0 mm 2 mps 699 mmHg 92%
    20:00 +2°C° 0 mm 2 mps 699 mmHg 91%
    21:00 +2°C° 0 mm 2 mps 699 mmHg 90%
    22:00 +3°C° 0 mm 2 mps 700 mmHg 89%
    23:00 +2°C° 0 mm 2 mps 700 mmHg 89%

    Day after tomorrow, 24 January, Wednesday

    Time Temperature Precipitation Wind Pressure Humidity
    00:00 +2°C° 0 mm 2 mps 700 mmHg 89%
    01:00 +2°C° 0 mm 2 mps 699 mmHg 88%
    02:00 +2°C° 0 mm 2 mps 699 mmHg 88%
    03:00 +2°C° 0 mm 2 mps 699 mmHg 89%
    04:00 +2°C° 0 mm 2 mps 699 mmHg 89%
    05:00 +2°C° 0 mm 2 mps 699 mmHg 89%
    06:00 +2°C° 0 mm 2 mps 699 mmHg 90%
    07:00 +2°C° 0 mm 2 mps 699 mmHg 90%
    08:00 +3°C° 0 mm 2 mps 699 mmHg 89%
    09:00 +4°C° 0 mm 2 mps 699 mmHg 88%
    10:00 +4°C° 0 mm 2 mps 699 mmHg 86%
    11:00 +6°C° 0 mm 2 mps 699 mmHg 84%
    12:00 +7°C° 0 mm 2 mps 698 mmHg 81%
    13:00 +8°C° 0 mm 2 mps 698 mmHg 79%
    14:00 +8°C° 0 mm 2 mps 697 mmHg 80%
    15:00 +7°C° 0 mm 2 mps 697 mmHg 82%
    16:00 +7°C° 0 mm 2 mps 697 mmHg 83%
    17:00 +6°C° 0 mm 2 mps 696 mmHg 83%
    18:00 +5°C° 0 mm 2 mps 696 mmHg 83%
    19:00 +3°C° 0 mm 3 mps 696 mmHg 83%
    20:00 +3°C° 0 mm 3 mps 696 mmHg 82%
    21:00 +3°C° 0 mm 3 mps 696 mmHg 81%
    22:00 +3°C° 0 mm 3 mps 696 mmHg 80%
    23:00 +3°C° 0 mm 3 mps 696 mmHg 80%

    25 January, Thursday

    Time Temperature Precipitation Wind Pressure Humidity
    00:00 +3°C° 0 mm 3 mps 696 mmHg 80%
    01:00 +3°C° 0 mm 3 mps 696 mmHg 80%
    02:00 +3°C° 0 mm 3 mps 695 mmHg 80%
    03:00 +2°C° 0 mm 3 mps 695 mmHg 80%
    04:00 +2°C° 0 mm 3 mps 694 mmHg 80%
    05:00 +2°C° 0 mm 3 mps 694 mmHg 80%
    06:00 +2°C° 0 mm 3 mps 694 mmHg 80%
    07:00 +2°C° 0 mm 3 mps 694 mmHg 79%
    08:00 +2°C° 0 mm 3 mps 693 mmHg 77%
    09:00 +3°C° 0 mm 3 mps 693 mmHg 75%
    10:00 +4°C° 0 mm 3 mps 693 mmHg 73%
    11:00 +5°C° 0 mm 3 mps 693 mmHg 71%
    12:00 +7°C° 0 mm 3 mps 693 mmHg 68%
    13:00 +8°C° 0 mm 3 mps 693 mmHg 65%
    14:00 +7°C° 0 mm 3 mps 692 mmHg 69%
    15:00 +7°C° 0 mm 2 mps 692 mmHg 73%
    16:00 +7°C° 0 mm 2 mps 691 mmHg 76%
    17:00 +6°C° 0 mm 2 mps 691 mmHg 78%
    18:00 +5°C° 0 mm 2 mps 691 mmHg 79%
    19:00 +4°C° 0 mm 2 mps 691 mmHg 81%
    20:00 +4°C° 0.4 mm 2 mps 691 mmHg 83%
    21:00 +4°C° 0.4 mm 2 mps 691 mmHg 85%
    22:00 +4°C° 0.4 mm 2 mps 691 mmHg 87%
    23:00 +4°C° 0.7 mm 1 mps 691 mmHg 88%

    26 January, Friday

    Time Temperature Precipitation Wind Pressure Humidity
    00:00 +4°C° 0.7 mm 1 mps 691 mmHg 90%
    01:00 +4°C° 0.7 mm 1 mps 691 mmHg 91%
    02:00 +3°C° 0.5 mm 1 mps 691 mmHg 92%
    03:00 +3°C° 0.5 mm 1 mps 690 mmHg 94%
    04:00 +3°C° 0.5 mm 1 mps 690 mmHg 95%
    05:00 +3°C° 0.6 mm 1 mps 690 mmHg 95%
    06:00 +3°C° 0.6 mm 1 mps 690 mmHg 95%
    07:00 +2°C° 0.6 mm 1 mps 690 mmHg 96%
    08:00 +2°C° 1.1 mm 1 mps 690 mmHg 95%
    09:00 +3°C° 1.1 mm 1 mps 691 mmHg 95%
    10:00 +3°C° 1.1 mm 1 mps 691 mmHg 95%
    11:00 +3°C° 1.1 mm 1 mps 691 mmHg 94%
    12:00 +2°C° 1.1 mm 2 mps 692 mmHg 94%
    13:00 +2°C° 1.1 mm 2 mps 692 mmHg 94%
    14:00 +2°C° 0.7 mm 2 mps 692 mmHg 94%
    15:00 +3°C° 0.7 mm 1 mps 693 mmHg 94%
    16:00 +3°C° 0.7 mm 1 mps 693 mmHg 94%
    17:00 +3°C° 0.3 mm 1 mps 694 mmHg 94%
    18:00 +2°C° 0.3 mm 1 mps 694 mmHg 94%
    19:00 +2°C° 0.3 mm 1 mps 695 mmHg 95%
    20:00 +2°C° 0.1 mm 1 mps 695 mmHg 95%
    21:00 +1°C° 0.1 mm 1 mps 696 mmHg 94%
    22:00 +1°C° 0.1 mm 1 mps 696 mmHg 94%
    23:00 +1°C° 0 mm 1 mps 697 mmHg 94%

    27 January, Saturday

    Time Temperature Precipitation Wind Pressure Humidity
    00:00 +1°C° 0 mm 1 mps 697 mmHg 94%
    01:00 0°C° 0 mm 1 mps 697 mmHg 94%
    02:00 0°C° 0 mm 1 mps 697 mmHg 94%
    03:00 0°C° 0 mm 1 mps 697 mmHg 94%
    04:00 0°C° 0 mm 1 mps 697 mmHg 94%
    05:00 -1°C° 0 mm 1 mps 698 mmHg 94%
    06:00 -1°C° 0 mm 1 mps 698 mmHg 93%
    07:00 -2°C° 0 mm 0 mps 699 mmHg 93%
    08:00 -1°C° 0 mm 0 mps 699 mmHg 92%
    09:00 0°C° 0 mm 0 mps 700 mmHg 91%
    10:00 0°C° 0 mm 0 mps 701 mmHg 90%
    11:00 +2°C° 0 mm 1 mps 701 mmHg 88%
    12:00 +2°C° 0 mm 1 mps 701 mmHg 85%
    13:00 +3°C° 0 mm 1 mps 701 mmHg 83%
    14:00 +3°C° 0 mm 1 mps 701 mmHg 84%
    15:00 +3°C° 0 mm 1 mps 702 mmHg 85%
    16:00 +3°C° 0 mm 1 mps 702 mmHg 86%
    17:00 +2°C° 0 mm 1 mps 702 mmHg 88%
    18:00 +1°C° 0 mm 1 mps 703 mmHg 90%
    19:00 +1°C° 0 mm 1 mps 703 mmHg 92%
    20:00 0°C° 0 mm 1 mps 703 mmHg 92%
    21:00 -1°C° 0 mm 1 mps 703 mmHg 92%
    22:00 -2°C° 0 mm 1 mps 703 mmHg 92%
    23:00 -2°C° 0 mm 1 mps 703 mmHg 92%
    Show more